This is the latest recevied weather packets stored in our database for station/object KC1HBM. If no packets are shown the sender has not sent any weather packets the latest 10 day(s).
| Time | Temp. | Humidity | Pressure | Rain* | Wind** | Luminosity | Snow |
|---|---|---|---|---|---|---|---|
| 1777655895 | 16.67° C | 55% | 1005.2 hPa | 0 mm | - | 189 W/m² | - |
| 1777655600 | 16.11° C | 53% | 1005.3 hPa | 0 mm | - | 973 W/m² | - |
| 1777655289 | 15° C | 57% | 1005.2 hPa | 0 mm | - | 263 W/m² | - |
| 1777654986 | 15° C | 58% | 1005.1 hPa | 0 mm | - | 163 W/m² | - |
| 1777654683 | 15.56° C | 56% | 1005.1 hPa | 0 mm | - | 279 W/m² | - |
| 1777654381 | 15.56° C | 57% | 1005.2 hPa | 0 mm | - | 949 W/m² | - |
| 1777654078 | 15° C | 61% | 1005.5 hPa | 0 mm | - | 288 W/m² | - |
| 1777653775 | 15.56° C | 59% | 1005.5 hPa | 0 mm | - | 211 W/m² | - |
| 1777653471 | 14.44° C | 64% | 1005.5 hPa | 0 mm | - | 184 W/m² | - |
| 1777653169 | 14.44° C | 61% | 1005.6 hPa | 0 mm | - | 143 W/m² | - |
| 1777652864 | 15° C | 63% | 1005.6 hPa | 0 mm | - | 267 W/m² | - |
| 1777652561 | 13.89° C | 59% | 1005.8 hPa | 0 mm | - | 557 W/m² | - |
| 1777652258 | 13.89° C | 63% | 1005.7 hPa | 0 mm | - | 889 W/m² | - |
| 1777651956 | 13.89° C | 66% | 1005.7 hPa | 0 mm | - | 188 W/m² | - |
| 1777651652 | 13.33° C | 65% | 1005.8 hPa | 0 mm | - | 137 W/m² | - |
| 1777651349 | 13.89° C | 64% | 1006 hPa | 0 mm | - | 111 W/m² | - |
| 1777651046 | 14.44° C | 65% | 1005.9 hPa | 0 mm | - | 127 W/m² | - |
| 1777650743 | 13.89° C | 66% | 1006.1 hPa | 0 mm | - | 405 W/m² | - |
| 1777650440 | 13.33° C | 69% | 1006 hPa | 0 mm | - | 225 W/m² | - |
| 1777650137 | 13.89° C | 67% | 1006 hPa | 0 mm | - | 144 W/m² | - |
| 1777649835 | 14.44° C | 65% | 1006.1 hPa | 0 mm | - | 202 W/m² | - |
| 1777649532 | 14.44° C | 62% | 1006.1 hPa | 0 mm | - | 561 W/m² | - |
| 1777649228 | 13.89° C | 65% | 1006 hPa | 0 mm | - | 829 W/m² | - |
| 1777648925 | 13.89° C | 64% | 1006.1 hPa | 0 mm | - | 724 W/m² | - |
| 1777648622 | 14.44° C | 68% | 1006.2 hPa | 0 mm | - | 708 W/m² | - |
* Rain latest hour (hover to see other rain measurements)
** Current wind speed in m/s (hover to see current wind gust speed)